Regional Weather Roundup
Issued by NWS Portland, ME

Home | Current Version | Previous Version | Text Only | Print | Product List | Glossary On
Versions: 1 2 3 4 5 6 7 8 9 10 11 12 13 14 15 16 17 18 19 20 21 22 23 24 25 26 27 28 29 30 31 32 33 34 35 36 37 38 39 40 41 42 43 44 45 46 47 48 49 50
000
ASUS41 KGYX 181510
RWRGYX
WEATHER ROUNDUP FOR MAINE AND NEW HAMPSHIRE
NATIONAL WEATHER SERVICE GRAY ME
1000 AM EST TUE DEC 18 2018

MEZ002-005-006-010-012-015-018-020-021-024-026-027-029-181600-
MAINE

CITY           SKY/WX    TMP DP  RH WIND       PRES   REMARKS
PORTLAND       FAIR      26   9  48 NW16G35   29.75R WCI  14
SANFORD        FAIR      24  11  57 NW12G18   29.77R WCI  13
BAR HARBOR     CLOUDY    22  17  81 NW12G23   29.59R WCI  10
WISCASSET      FAIR      24  11  57 NW10G21   29.72R WCI  14
ROCKLAND       FAIR      23  14  68 NW17G25   29.65R WCI   9
FRYEBURG       FAIR      23   5  46 W9G21     29.77R
LEWISTONAUBURN FAIR      22   9  57 NW25G39   29.73R WCI   5
AUGUSTA        FAIR      22  10  60 NW18G32   29.71R WCI   7
WATERVILLE     FAIR      24  12  60 MISG      29.67R
BANGOR         PTSUNNY   22  14  71 NW23G30   29.64R WCI   6
GREENVILLE       N/A     15   8  73 NW15G24   29.59R WCI   0
MILLINOCKET    CLOUDY    22  13  68 NW15G24   29.60R WCI   9
HOULTON        CLOUDY    21  15  78 NW18G28   29.51R HAZE    WCI   6
PRESQUE ISLE   LGT SNOW  22  15  75 NW24G37   29.54R WCI   5
FRENCHVILLE    LGT SNOW  21  12  68 NW31G39   29.51S WCI   2
CARIBOU        FAIR      21  13  71 NW21G33   29.50S HAZE    WCI   5
$$

NHZ002-005-008-009-011-012-014-181600-
NEW HAMPSHIRE

CITY           SKY/WX    TMP DP  RH WIND       PRES   REMARKS
PORTSMOUTH     PTSUNNY   24   7  47 W23G32    29.77R WCI   9
ROCHESTER      PTSUNNY   23   9  55 NW23G36   29.77R WCI   7
NASHUA         FAIR      26  10  50 NW25G32   29.85R WCI  11
MANCHESTER     FAIR      25   7  46 NW20G35   29.84R WCI  11
CONCORD        FAIR      22   9  57 NW28G37   29.86R WCI   4
LACONIA        PTSUNNY   22   9  57 NW13G20   29.85R WCI  10
PLYMOUTH       CLOUDY    20   9  62 NW20G26   29.89R WCI   4
BERLIN         LGT SNOW  17   9  70 VRB6      29.83R
WHITEFIELD     LGT SNOW  16   8  71 NW12      29.88R WCI   3
JAFFREY        FAIR      21   9  59 NW9G25    29.85R
KEENE          FAIR      24   9  52 NW18G29   29.92R WCI  10
LEBANON        CLOUDY    21   7  54 NW13G23   29.94R WCI   9
MT WASHINGTON  NOT AVBL
$$

VTZ005-007-008-181600-
VERMONT

CITY           SKY/WX    TMP DP  RH WIND       PRES   REMARKS
ST JOHNSBURY     N/A     17   8  67 MISG      29.92R
MONTPELIER     LGT SNOW  14  11  87 NW18G25   29.96R FOG     WCI  -3
BURLINGTON     PTSUNNY   21   9  59 NW17G26   30.04R WCI   7
$$

MAZ007-012-024-CTZ003-RIZ002-NYZ038-NYZ072-181600-
SOUTHERN NEW ENGLAND AND NY

CITY           SKY/WX    TMP DP  RH WIND       PRES   REMARKS
BOSTON         PTSUNNY   29  10  45 NW22G40   29.82R WCI  15
WORCESTER      FAIR      21   8  57 NW24G35   29.83R WCI   4
NANTUCKET      FAIR      30  12  47 NW26G36   29.77R WCI  16
PROVIDENCE     FAIR      27   8  44 NW20G35   29.86R WCI  13
HARTFORD       FAIR      26   8  46 NW14G23   29.96R WCI  14
ALBANY         FAIR      24   8  50 NW20G30   30.08R WCI  10
NEW YORK CITY  FAIR      32  15  49 NW25G32   30.03R WCI  19
$$

ANZ081-ANZ082-ANZ150-NHZ014-MEZ023>029-181600-
COASTAL MARINE OBSERVATIONS

STATION/POSITION TIME  TEMP    WIND        PRES    WAVE
                       AIR SEA DIR/SP/G            HT/PER
                 (UTC) (F)     (DEG/KT/KT) (MB)    (FT/S)
MOUNT DESERT ROC 1500   26     300/ 43/ 47 1000.7R
MATINICUS ROCK   1400   26     320/ 39/ 43 1001.5R
ISLE OF SHOALS   1400   24     300/ 31/ 35 1006.6R
JEFFREYS LEDGE   1438      46                N/A     8/ 7
$$

.............KEY..............
   WCI - WIND CHILL
   TC  - TEMPERATURE IN CELSIUS
   VSB - VISIBILITY IN MILES
   HX  - HEAT INDEX
   FAIR- INDICATES FEW OR NO CLOUDS BELOW 12,000 FT, WITH NO
         SIGNIFICANT WEATHER AND/OR OBSTRUCTIONS TO VISIBILITY.






USA.gov is the U.S. government's official web portal to all federal, state and local government web resources and services.